Wind_Speed
14 13 13 12 12 11 10 9 9 9 8 7 7 7 6 5 5 4 4 3 2 2 2 2 2 2 3 3 3 3 4 4 4 4 4 3 3 2 2 2 2 2 2
13 13 13 13 12 12 11 10 9 9 8 7 7 7 6 5 4 4 3 2 2 2 2 2 2 2 3 3 3 3 4 4 4 4 4 3 2 2 2 2 2 3 3
12 13 13 13 13 12 11 10 10 9 8 7 6 6 6 5 3 3 2 2 2 1 1 1 1 2 2 2 2 3 3 4 3 4 4 4 3 3 3 3 3 3 3
11 12 13 13 13 12 11 11 10 8 7 7 6 5 5 5 4 3 2 2 1 1 1 0 1 1 2 2 3 3 3 3 3 4 4 4 4 4 3 3 3 4 3
10 11 12 13 13 13 12 10 10 9 7 6 6 5 5 5 4 3 2 1 2 2 1 0 1 1 2 2 3 3 3 3 4 4 5 4 4 4 4 3 3 4 4
10 11 11 12 13 13 12 11 10 9 8 6 5 4 4 4 4 3 2 1 1 1 1 0 1 1 2 2 3 4 4 4 5 5 4 4 4 4 4 4 4 4 5
10 11 10 11 12 12 11 11 10 9 8 7 5 4 4 5 4 3 2 1 1 1 1 1 1 2 2 2 2 3 4 5 5 5 5 4 4 4 5 5 4 5 6
10 10 10 10 11 11 11 10 10 9 8 7 5 4 4 4 4 3 3 2 1 0 1 1 2 2 2 2 2 3 3 4 5 5 5 5 5 6 6 5 5 6 6
9 9 9 10 11 10 10 11 10 9 8 7 5 4 4 4 4 4 4 2 2 1 1 1 1 1 2 2 3 3 3 3 4 4 5 4 5 6 6 6 6 7 7
8 9 9 10 9 9 9 10 10 9 8 7 6 5 5 4 4 3 3 3 2 2 2 1 1 1 2 2 2 2 3 4 4 4 4 5 5 5 6 6 7 7 8
8 8 8 9 9 8 8 8 8 8 7 6 5 5 5 4 4 3 3 3 3 3 3 2 2 2 3 3 3 3 4 5 5 5 5 6 6 6 6 6 7 7 7
7 7 8 8 8 8 7 7 7 7 6 6 4 4 4 4 4 4 3 3 3 3 3 3 3 3 3 4 4 4 4 5 6 6 6 7 7 7 7 7 7 8 8
8 8 8 7 7 7 7 6 7 6 5 5 4 4 4 4 4 4 3 3 3 4 4 4 4 4 4 4 4 4 5 6 6 6 6 6 6 7 7 8 8 8 9
9 9 8 7 7 7 7 5 6 6 5 4 4 4 4 4 4 4 4 3 4 4 4 5 4 5 5 5 6 6 6 6 6 7 7 7 7 8 8 8 8 8 9
9 9 9 8 7 6 6 6 5 6 5 5 5 4 4 4 5 5 5 5 5 5 5 5 5 5 5 6 6 6 6 6 6 7 7 8 8 8 8 9 9 9 9
10 9 9 8 7 6 6 6 6 6 5 5 5 5 5 6 6 6 6 6 6 6 5 6 6 6 6 7 7 7 7 7 7 8 8 8 8 8 8 9 9 10 10
10 10 10 9 8 7 6 6 7 7 7 7 7 7 7 7 6 6 7 7 7 8 7 7 7 7 7 7 7 8 8 8 8 9 9 9 9 9 9 10 10 10 11
11 12 11 10 9 9 8 8 8 8 8 9 9 9 8 8 8 8 8 9 9 8 8 8 8 8 8 8 8 8 9 9 9 9 9 9 10 10 10 10 11 11 11
13 13 12 12 11 10 9 9 9 9 9 9 10 10 9 9 9 9 9 10 10 9 9 9 8 8 8 8 8 9 9 9 10 10 10 10 10 10 10 10 11 11 12
14 13 13 13 13 11 11 11 11 11 10 11 11 11 11 11 10 10 11 11 10 10 9 9 9 9 9 10 9 9 9 9 10 10 11 11 10 11 11 11 11 11 12
15 14 14 15 15 14 13 12 13 13 13 13 13 13 12 12 12 12 12 11 10 10 10 9 10 9 10 10 10 10 9 9 10 10 11 11 11 12 12 13 13 13 13
16 16 15 16 16 16 15 14 14 14 15 15 14 14 13 13 12 12 11 11 11 10 10 10 10 10 10 10 10 10 10 10 11 11 12 12 12 13 13 13 13 13 14
18 17 17 17 18 18 17 16 15 15 16 15 15 14 13 13 12 12 12 12 12 11 11 11 12 12 12 11 11 11 11 11 12 13 13 12 12 13 13 14 14 14 14
20 19 19 19 19 19 18 18 17 17 18 17 15 14 14 14 14 14 14 14 14 13 13 13 14 14 13 13 13 13 13 13 13 13 14 13 13 13 14 14 14 14 15
22 21 21 21 21 21 20 19 19 19 19 18 17 16 16 15 15 15 15 15 15 15 15 15 16 16 15 15 15 14 14 14 15 15 15 15 15 15 15 14 15 15 15
23 24 23 22 21 22 22 21 21 20 20 19 19 18 17 17 16 17 17 17 17 17 17 17 18 18 16 16 16 15 15 15 16 16 16 16 16 16 15 15 15 16 17
Wind_Direction
31 30 32 32 32 34 37 39 40 40 39 38 35 33 36 39 45 48 53 64 81 109 139 163 166 171 167 162 172 178 177 175 175 179 175 179 186 180 178 193 194 190 196
29 30 29 29 30 31 32 33 34 36 36 36 32 30 36 38 43 47 49 52 74 99 130 166 175 174 175 172 180 182 185 192 189 196 195 194 204 213 215 221 218 210 214
27 28 28 30 31 29 30 31 30 32 34 31 33 33 35 38 35 39 40 48 65 71 121 170 188 186 187 182 194 196 204 209 211 210 209 205 208 221 228 231 226 219 228
23 27 29 30 31 31 31 31 30 30 33 31 33 33 35 38 36 33 37 48 46 30 357 220 216 216 215 210 213 219 223 217 221 221 225 218 217 225 226 229 230 224 230
20 24 27 27 30 31 31 28 27 27 28 29 32 30 33 29 25 23 31 14 14 11 355 327 262 234 233 232 232 234 235 230 230 236 233 228 223 223 224 225 235 230 235
18 20 24 26 29 30 30 28 25 23 24 23 29 31 36 28 23 18 16 5 359 9 349 312 261 244 242 246 248 249 243 243 239 236 227 225 227 231 231 229 242 245 247
8 16 24 26 26 28 29 29 26 23 22 17 22 30 31 28 30 27 17 9 29 357 309 255 263 255 250 248 257 260 251 247 241 233 233 241 241 243 243 242 249 246 247
9 15 22 24 24 24 27 26 25 21 19 17 25 33 28 26 26 30 40 54 66 354 244 220 221 256 265 254 259 261 257 251 246 244 251 252 250 247 242 247 248 246 244
9 15 19 20 21 22 24 23 23 18 20 24 31 36 33 30 25 26 33 49 40 12 298 211 195 227 243 248 260 259 267 260 255 254 264 261 254 248 250 255 256 256 255
7 13 14 16 17 18 16 21 25 23 23 25 34 37 36 30 24 20 20 22 33 32 11 324 284 265 240 265 240 245 267 269 274 277 274 272 265 264 264 262 266 264 258
0 6 11 12 13 10 8 14 25 23 22 22 26 30 28 22 14 8 7 9 6 7 1 339 322 310 273 269 259 265 273 279 275 275 275 277 274 271 268 267 267 265 261
349 354 359 2 6 5 2 7 16 17 17 11 14 16 14 13 4 355 351 357 354 347 344 327 288 296 285 276 263 265 278 282 277 273 272 274 275 276 275 272 269 269 263
342 345 347 349 352 355 355 356 360 5 6 1 358 358 358 355 352 350 354 336 334 326 326 315 295 281 283 275 260 272 283 287 285 279 280 281 279 281 280 279 277 271 267
334 335 333 333 333 338 339 341 350 348 347 345 347 344 341 338 334 333 341 323 319 315 315 318 309 288 276 268 272 282 291 289 288 285 285 284 278 276 275 276 277 273 266
326 326 323 321 319 320 324 331 341 335 332 329 331 327 320 320 318 314 317 316 315 313 312 308 304 293 285 285 286 292 295 297 292 285 285 283 279 276 274 276 277 275 270
320 319 317 315 316 313 317 324 329 328 320 308 313 314 307 304 305 306 305 308 309 306 312 311 302 301 294 289 291 292 293 293 288 285 284 284 279 277 277 276 273 272 271
317 315 312 310 313 311 310 312 314 313 320 324 318 311 303 297 298 298 298 299 303 302 300 302 302 300 297 292 291 289 288 288 288 285 282 282 281 280 281 279 274 273 274
314 315 315 306 305 303 303 300 306 307 312 315 313 308 301 293 291 291 291 293 294 297 296 297 297 296 293 290 289 289 289 286 287 286 284 285 281 279 280 281 278 276 275
305 307 309 304 298 297 295 292 293 298 299 306 307 307 300 291 287 287 290 290 290 292 290 292 296 294 292 289 287 291 292 289 289 287 286 285 282 280 280 280 278 277 276
295 296 298 298 295 294 291 289 290 294 293 297 298 297 293 287 283 284 287 290 289 288 290 290 292 294 291 288 284 289 292 290 289 287 286 283 280 280 281 283 280 277 276
291 290 290 292 291 290 289 288 287 289 292 292 291 290 288 284 282 282 285 287 290 288 289 289 291 295 294 290 286 286 289 291 292 290 287 283 280 280 282 284 281 277 273
285 284 286 287 287 287 285 281 282 284 287 285 282 283 281 282 283 285 283 285 288 288 286 285 288 292 297 294 288 287 289 287 288 288 287 284 281 281 283 283 282 278 275
284 283 282 283 284 284 285 280 278 282 283 284 284 284 282 280 281 284 282 282 285 285 284 282 284 284 287 289 288 284 283 284 286 284 282 283 281 282 283 282 281 278 278
281 279 279 280 279 279 280 279 279 281 284 281 279 280 277 273 275 281 281 282 283 282 282 282 284 285 284 284 284 282 282 283 286 284 284 282 283 283 285 284 282 282 281
278 277 279 279 277 276 276 276 277 277 281 278 276 278 273 269 272 275 277 280 282 282 281 280 283 284 283 283 284 283 282 283 285 282 281 280 282 282 283 284 285 285 283
277 278 279 279 276 276 274 276 277 277 280 277 274 272 272 271 271 271 274 277 279 281 280 281 283 283 281 281 283 284 283 283 285 282 281 279 281 281 281 282 283 282 283
Height
5884 5882 5880 5879 5877 5876 5875 5875 5874 5874 5874 5873 5873 5873 5872 5873 5873 5873 5873 5873 5874 5875 5875 5876 5877 5877 5878 5879 5880 5881 5881 5882 5883 5884 5884 5885 5885 5886 5886 5887 5887 5888 5888
5885 5883 5881 5879 5878 5877 5876 5875 5874 5874 5874 5873 5873 5873 5873 5873 5873 5873 5874 5874 5874 5875 5876 5876 5877 5877 5878 5879 5880 5880 5881 5882 5883 5883 5884 5885 5885 5886 5886 5887 5887 5887 5888
5886 5884 5882 5880 5879 5877 5876 5875 5875 5874 5874 5874 5873 5873 5873 5873 5873 5873 5874 5874 5875 5875 5876 5876 5877 5877 5878 5879 5879 5880 5881 5882 5882 5883 5884 5884 5885 5886 5886 5886 5887 5887 5887
5887 5885 5883 5881 5879 5878 5877 5876 5875 5874 5874 5874 5873 5873 5873 5873 5873 5874 5874 5874 5875 5875 5876 5876 5877 5877 5878 5878 5879 5880 5881 5882 5882 5883 5883 5884 5884 5885 5885 5886 5886 5886 5887
5888 5886 5884 5882 5880 5879 5878 5877 5875 5875 5874 5873 5873 5873 5873 5873 5873 5874 5874 5874 5875 5875 5875 5876 5877 5877 5878 5878 5879 5880 5880 5881 5882 5882 5883 5883 5884 5884 5885 5885 5886 5886 5886
5888 5886 5885 5883 5881 5879 5878 5877 5876 5875 5874 5873 5873 5873 5873 5873 5873 5874 5874 5874 5874 5875 5875 5876 5876 5877 5878 5878 5879 5879 5880 5881 5881 5881 5882 5882 5883 5883 5884 5884 5885 5885 5885
5888 5886 5885 5883 5882 5880 5879 5878 5876 5875 5874 5873 5873 5873 5873 5873 5873 5874 5874 5874 5874 5875 5875 5876 5876 5876 5877 5878 5878 5879 5879 5880 5880 5881 5881 5882 5882 5883 5883 5883 5884 5884 5884
5888 5887 5885 5884 5882 5881 5880 5879 5877 5876 5875 5873 5872 5873 5873 5873 5874 5874 5874 5874 5874 5875 5875 5875 5876 5876 5877 5877 5878 5878 5879 5879 5880 5880 5880 5880 5881 5882 5882 5882 5883 5883 5883
5889 5887 5886 5885 5883 5882 5881 5879 5878 5877 5876 5874 5873 5873 5873 5874 5874 5874 5874 5874 5875 5875 5875 5875 5875 5876 5876 5877 5877 5878 5878 5878 5879 5879 5880 5880 5880 5880 5881 5881 5881 5881 5882
5889 5888 5887 5885 5884 5883 5882 5880 5879 5878 5877 5876 5874 5874 5874 5874 5874 5874 5874 5874 5875 5875 5875 5875 5876 5876 5876 5877 5877 5877 5877 5877 5878 5878 5879 5879 5879 5879 5879 5880 5880 5880 5880
5890 5888 5887 5886 5885 5883 5882 5881 5880 5878 5878 5877 5876 5876 5875 5875 5875 5875 5874 5875 5875 5875 5875 5875 5876 5876 5876 5876 5876 5876 5877 5877 5877 5877 5877 5878 5878 5878 5878 5878 5878 5878 5879
5890 5888 5887 5886 5885 5884 5883 5882 5880 5879 5878 5878 5877 5877 5876 5875 5875 5875 5875 5875 5874 5874 5875 5875 5875 5875 5875 5875 5875 5876 5876 5876 5876 5876 5876 5876 5876 5876 5876 5876 5877 5877 5877
5889 5888 5887 5886 5885 5884 5883 5882 5881 5880 5879 5878 5877 5877 5876 5876 5875 5875 5875 5874 5874 5874 5874 5874 5874 5874 5874 5875 5875 5875 5875 5875 5875 5874 5874 5874 5874 5875 5875 5875 5875 5875 5875
5889 5888 5887 5886 5885 5884 5883 5882 5881 5880 5879 5878 5877 5877 5876 5876 5875 5875 5875 5874 5874 5874 5873 5873 5874 5874 5873 5873 5874 5873 5873 5873 5873 5873 5872 5872 5873 5873 5873 5873 5873 5873 5873
5888 5887 5886 5885 5884 5883 5883 5881 5880 5880 5879 5878 5877 5876 5876 5875 5875 5874 5874 5874 5873 5873 5873 5873 5873 5873 5873 5872 5872 5872 5871 5871 5871 5871 5871 5871 5871 5871 5871 5871 5871 5871 5871
5888 5887 5885 5885 5884 5883 5882 5881 5880 5879 5877 5877 5876 5875 5875 5875 5874 5874 5873 5873 5873 5872 5872 5872 5872 5872 5871 5871 5871 5870 5870 5870 5870 5869 5869 5869 5869 5869 5868 5868 5868 5868 5868
5886 5885 5884 5884 5883 5882 5881 5880 5879 5877 5876 5876 5875 5874 5874 5873 5873 5873 5872 5872 5872 5871 5871 5871 5870 5870 5870 5869 5869 5869 5868 5868 5868 5867 5867 5867 5866 5866 5866 5866 5866 5865 5865
5885 5884 5883 5882 5881 5880 5879 5878 5878 5876 5875 5874 5874 5873 5872 5872 5871 5871 5871 5870 5870 5869 5869 5869 5869 5868 5868 5867 5867 5867 5866 5866 5865 5865 5864 5864 5864 5863 5863 5863 5863 5863 5862
5882 5882 5881 5880 5879 5878 5878 5877 5876 5874 5874 5873 5872 5871 5870 5870 5869 5869 5869 5868 5868 5867 5867 5867 5867 5866 5866 5865 5865 5864 5864 5863 5863 5862 5862 5862 5861 5861 5861 5860 5860 5860 5859
5880 5879 5878 5878 5877 5876 5875 5875 5874 5872 5872 5871 5870 5869 5868 5868 5867 5867 5866 5866 5866 5865 5865 5864 5864 5864 5863 5863 5863 5862 5861 5861 5860 5860 5860 5859 5859 5858 5858 5858 5857 5857 5857
5876 5876 5875 5875 5874 5873 5873 5872 5871 5870 5870 5869 5868 5867 5866 5865 5864 5864 5864 5863 5863 5863 5863 5862 5862 5861 5861 5860 5860 5860 5859 5858 5858 5858 5857 5857 5856 5856 5855 5854 5854 5853 5853
5873 5872 5872 5872 5871 5870 5869 5869 5868 5867 5867 5865 5864 5864 5863 5862 5861 5861 5861 5861 5861 5861 5860 5860 5859 5859 5858 5858 5857 5857 5857 5857 5855 5855 5854 5854 5853 5852 5852 5851 5850 5850 5850
5869 5868 5868 5867 5867 5866 5866 5864 5864 5863 5863 5862 5861 5860 5859 5859 5858 5858 5858 5858 5858 5858 5858 5857 5857 5856 5855 5855 5854 5854 5854 5853 5852 5852 5851 5850 5850 5849 5848 5848 5847 5846 5846
5864 5864 5863 5863 5862 5862 5861 5860 5859 5859 5858 5858 5857 5856 5856 5855 5855 5855 5855 5855 5855 5854 5854 5854 5853 5853 5852 5851 5851 5850 5850 5850 5849 5848 5848 5847 5846 5845 5845 5844 5843 5843 5842
5859 5858 5858 5858 5857 5857 5856 5855 5855 5854 5853 5853 5852 5852 5852 5851 5851 5851 5851 5851 5851 5850 5850 5850 5850 5849 5849 5848 5847 5847 5846 5846 5845 5845 5844 5843 5843 5842 5841 5840 5840 5839 5838
5853 5853 5852 5852 5851 5850 5850 5849 5849 5848 5848 5847 5847 5847 5847 5847 5847 5847 5846 5846 5846 5846 5846 5846 5845 5845 5844 5844 5844 5843 5842 5842 5841 5840 5840 5839 5839 5838 5837 5836 5836 5835 5834